GSAT0202 (GALILEO 6) (40129 NORAD) Tracking and Keplerian Element Data

This shows tracking and keplerian element data for the satellite.

Feedback or suggestion? Click here.




ElementValue
Catalog40129
NameGSAT0202 (GALILEO 6)
Epoch Orbit7122
Epoch Day34.03291461
Epoch Year2025
RAAN292.8387
Inclination49.4305
Eccentricity0.1618574
Argument of Perigee160.9208
Mean Anonmoly205.9551
Mean Motion1.85520263
Decay Rate-4.4E-07
L11 40129U 14050B 25034.03291461 -.00000044 00000+0 00000+0 0 9993
L22 40129 49.4305 292.8387 1618574 160.9208 205.9551 1.85520263 71221



Live tracking and technical data element details for GSAT0202 (GALILEO 6) (NORAD 40129). GSAT0202 (GALILEO 6) can be tracked NOW for your location showing map with azimuth and elevation plus other details from your city location.







IsCatalogInMostPopularTable: catalog: 40129, numindb: 665
Update: records affected: 1



GetName: 40129 GSAT0202 (GALILEO 6)

Hit Count: updated at: Sat, 17 May 2025 09:33:47 GMT